www.cux-wetter.de
Wetterdaten: Donnerstag, 20.08.2009
Datum Zeit Temp. A. Feuchte A. Luftdruck Regen Wind Richtung Richtung Sonnenschein Solar Taupunkt Windchill Windben
20.08.2009 00:04 19,5 C 66 % 1017,5 hPa 0,0 l/m 7,6 km/h (2 Bft) S-SO 150 0 min 0 W/m 13,0 C 19,0 C 7,6 km/h (2 Bft)
20.08.2009 00:09 19,4 C 66 % 1017,5 hPa 0,0 l/m 10,3 km/h (2 Bft) S 170 0 min 0 W/m 12,9 C 17,9 C 10,3 km/h (2 Bft)
20.08.2009 00:14 19,5 C 66 % 1017,5 hPa 0,0 l/m 10,2 km/h (2 Bft) S-SO 165 0 min 0 W/m 13,0 C 18,0 C 10,2 km/h (2 Bft)
20.08.2009 00:19 19,5 C 66 % 1017,5 hPa 0,0 l/m 7,5 km/h (2 Bft) S-SO 155 0 min 0 W/m 13,0 C 19,0 C 7,5 km/h (2 Bft)
20.08.2009 00:23 19,4 C 66 % 1017,5 hPa 0,0 l/m 9,4 km/h (2 Bft) S-SO 160 0 min 0 W/m 12,9 C 18,2 C 9,4 km/h (2 Bft)
20.08.2009 00:29 19,4 C 66 % 1017,5 hPa 0,0 l/m 11,7 km/h (2 Bft) S-SO 160 0 min 0 W/m 12,9 C 17,4 C 11,7 km/h (2 Bft)
20.08.2009 00:34 19,4 C 66 % 1017,5 hPa 0,0 l/m 8,5 km/h (2 Bft) S-SO 160 0 min 0 W/m 12,9 C 18,5 C 8,5 km/h (2 Bft)
20.08.2009 00:39 19,4 C 66 % 1017,5 hPa 0,0 l/m 10,8 km/h (2 Bft) S 170 0 min 0 W/m 12,9 C 17,7 C 10,8 km/h (2 Bft)
20.08.2009 00:44 19,3 C 66 % 1017,5 hPa 0,0 l/m 6,8 km/h (2 Bft) S-SO 160 0 min 0 W/m 12,8 C 19,1 C 6,8 km/h (2 Bft)
20.08.2009 00:49 19,2 C 66 % 1017,5 hPa 0,0 l/m 6,9 km/h (2 Bft) S-SO 155 0 min 0 W/m 12,7 C 19,0 C 6,9 km/h (2 Bft)
20.08.2009 00:54 19,2 C 66 % 1017,5 hPa 0,0 l/m 7,0 km/h (2 Bft) S-SO 160 0 min 0 W/m 12,7 C 18,9 C 7,0 km/h (2 Bft)
20.08.2009 00:59 19,2 C 67 % 1017,5 hPa 0,0 l/m 7,9 km/h (2 Bft) S-SO 160 0 min 0 W/m 12,9 C 18,6 C 7,9 km/h (2 Bft)
20.08.2009 01:04 19,2 C 67 % 1017,5 hPa 0,0 l/m 7,6 km/h (2 Bft) S-SO 155 0 min 0 W/m 12,9 C 18,7 C 7,6 km/h (2 Bft)
20.08.2009 01:09 19,2 C 67 % 1017,5 hPa 0,0 l/m 8,3 km/h (2 Bft) S-SO 160 0 min 0 W/m 12,9 C 18,4 C 8,3 km/h (2 Bft)
20.08.2009 01:14 19,1 C 67 % 1017,5 hPa 0,0 l/m 7,2 km/h (2 Bft) S 170 0 min 0 W/m 12,8 C 18,7 C 7,2 km/h (2 Bft)
20.08.2009 01:19 19,1 C 67 % 1017,5 hPa 0,0 l/m 11,0 km/h (2 Bft) S-SO 160 0 min 0 W/m 12,8 C 17,3 C 11,0 km/h (2 Bft)
20.08.2009 01:24 19,0 C 67 % 1017,5 hPa 0,0 l/m 7,5 km/h (2 Bft) S-SO 165 0 min 0 W/m 12,7 C 18,5 C 7,5 km/h (2 Bft)
20.08.2009 01:29 19,0 C 67 % 1017,5 hPa 0,0 l/m 10,0 km/h (2 Bft) S-SO 165 0 min 0 W/m 12,7 C 17,5 C 10,0 km/h (2 Bft)
20.08.2009 01:34 18,9 C 67 % 1017,5 hPa 0,0 l/m 8,9 km/h (2 Bft) S-SO 165 0 min 0 W/m 12,6 C 17,8 C 8,9 km/h (2 Bft)
20.08.2009 01:39 18,9 C 67 % 1017,5 hPa 0,0 l/m 11,8 km/h (2 Bft) S-SO 155 0 min 0 W/m 12,6 C 16,8 C 11,8 km/h (2 Bft)
20.08.2009 01:44 18,9 C 68 % 1017,5 hPa 0,0 l/m 11,0 km/h (2 Bft) S-SO 165 0 min 0 W/m 12,9 C 17,1 C 11,0 km/h (2 Bft)
20.08.2009 01:48 18,9 C 67 % 1017,5 hPa 0,0 l/m 11,0 km/h (2 Bft) S-SO 160 0 min 0 W/m 12,6 C 17,1 C 11,0 km/h (2 Bft)
20.08.2009 01:54 18,9 C 67 % 1017,5 hPa 0,0 l/m 14,4 km/h (3 Bft) S-SO 160 0 min 0 W/m 12,6 C 16,1 C 14,4 km/h (3 Bft)
20.08.2009 01:59 18,8 C 67 % 1017,5 hPa 0,0 l/m 10,3 km/h (2 Bft) S-SO 160 0 min 0 W/m 12,5 C 17,2 C 10,3 km/h (2 Bft)
20.08.2009 02:04 18,8 C 67 % 1017,5 hPa 0,0 l/m 11,1 km/h (2 Bft) S-SO 165 0 min 0 W/m 12,5 C 16,9 C 11,1 km/h (2 Bft)
20.08.2009 02:09 18,9 C 67 % 1017,5 hPa 0,0 l/m 11,3 km/h (2 Bft) S-SO 165 0 min 0 W/m 12,6 C 17,0 C 11,3 km/h (2 Bft)
20.08.2009 02:14 18,8 C 67 % 1017,5 hPa 0,0 l/m 13,3 km/h (3 Bft) S-SO 160 0 min 0 W/m 12,5 C 16,3 C 13,3 km/h (3 Bft)
20.08.2009 02:19 18,8 C 67 % 1017,5 hPa 0,0 l/m 11,4 km/h (2 Bft) S-SO 165 0 min 0 W/m 12,5 C 16,8 C 11,4 km/h (2 Bft)
20.08.2009 02:24 18,8 C 66 % 1017,5 hPa 0,0 l/m 15,6 km/h (3 Bft) S-SO 160 0 min 0 W/m 12,3 C 15,6 C 15,6 km/h (3 Bft)
20.08.2009 02:28 18,9 C 66 % 1017,5 hPa 0,0 l/m 12,5 km/h (2 Bft) S 170 0 min 0 W/m 12,4 C 16,6 C 12,5 km/h (2 Bft)
20.08.2009 02:34 18,9 C 66 % 1017,5 hPa 0,0 l/m 13,3 km/h (3 Bft) S-SO 160 0 min 0 W/m 12,4 C 16,4 C 13,3 km/h (3 Bft)
20.08.2009 02:39 19,0 C 65 % 1016,5 hPa 0,0 l/m 14,0 km/h (3 Bft) S-SO 160 0 min 0 W/m 12,3 C 16,3 C 14,0 km/h (3 Bft)
20.08.2009 02:44 19,0 C 65 % 1016,5 hPa 0,0 l/m 15,1 km/h (3 Bft) S 170 0 min 0 W/m 12,3 C 16,0 C 15,1 km/h (3 Bft)
20.08.2009 02:49 19,0 C 64 % 1016,5 hPa 0,0 l/m 14,7 km/h (3 Bft) S-SO 165 0 min 0 W/m 12,0 C 16,1 C 14,7 km/h (3 Bft)
20.08.2009 02:54 19,0 C 64 % 1016,5 hPa 0,0 l/m 18,5 km/h (3 Bft) S 175 0 min 0 W/m 12,0 C 15,2 C 18,5 km/h (3 Bft)
20.08.2009 02:59 19,0 C 64 % 1016,5 hPa 0,0 l/m 16,2 km/h (3 Bft) S 170 0 min 0 W/m 12,0 C 15,7 C 16,2 km/h (3 Bft)
20.08.2009 03:04 19,0 C 64 % 1016,5 hPa 0,0 l/m 13,3 km/h (3 Bft) S-SO 160 0 min 0 W/m 12,0 C 16,5 C 13,3 km/h (3 Bft)
20.08.2009 03:09 19,0 C 64 % 1016,5 hPa 0,0 l/m 13,3 km/h (3 Bft) S-SO 160 0 min 0 W/m 12,0 C 16,5 C 13,3 km/h (3 Bft)
20.08.2009 03:14 19,0 C 64 % 1016,5 hPa 0,0 l/m 12,1 km/h (2 Bft) S 175 0 min 0 W/m 12,0 C 16,8 C 12,1 km/h (2 Bft)
20.08.2009 03:19 19,0 C 64 % 1016,5 hPa 0,0 l/m 13,2 km/h (3 Bft) S 175 0 min 0 W/m 12,0 C 16,5 C 13,2 km/h (3 Bft)
20.08.2009 03:24 18,9 C 63 % 1016,5 hPa 0,0 l/m 14,6 km/h (3 Bft) S 170 0 min 0 W/m 11,7 C 16,0 C 14,6 km/h (3 Bft)
20.08.2009 03:29 18,9 C 63 % 1016,5 hPa 0,0 l/m 16,5 km/h (3 Bft) S 180 0 min 0 W/m 11,7 C 15,5 C 16,5 km/h (3 Bft)
20.08.2009 03:34 18,9 C 63 % 1016,5 hPa 0,0 l/m 12,6 km/h (3 Bft) S 170 0 min 0 W/m 11,7 C 16,6 C 12,6 km/h (3 Bft)
20.08.2009 03:39 18,9 C 63 % 1016,5 hPa 0,0 l/m 15,3 km/h (3 Bft) S-SO 165 0 min 0 W/m 11,7 C 15,8 C 15,3 km/h (3 Bft)
20.08.2009 03:44 18,9 C 63 % 1016,5 hPa 0,0 l/m 15,9 km/h (3 Bft) S 175 0 min 0 W/m 11,7 C 15,7 C 15,9 km/h (3 Bft)
20.08.2009 03:48 18,8 C 63 % 1016,5 hPa 0,0 l/m 13,6 km/h (3 Bft) S 170 0 min 0 W/m 11,6 C 16,2 C 13,6 km/h (3 Bft)
20.08.2009 03:54 18,8 C 63 % 1016,5 hPa 0,0 l/m 13,6 km/h (3 Bft) S 180 0 min 0 W/m 11,6 C 16,2 C 13,6 km/h (3 Bft)
20.08.2009 03:59 18,8 C 63 % 1016,5 hPa 0,0 l/m 19,7 km/h (3 Bft) S 170 0 min 0 W/m 11,6 C 14,7 C 19,7 km/h (3 Bft)
20.08.2009 04:04 18,8 C 63 % 1016,5 hPa 0,0 l/m 14,8 km/h (3 Bft) S 170 0 min 0 W/m 11,6 C 15,8 C 14,8 km/h (3 Bft)
20.08.2009 04:09 18,8 C 63 % 1016,5 hPa 0,0 l/m 14,9 km/h (3 Bft) S 170 0 min 0 W/m 11,6 C 15,8 C 14,9 km/h (3 Bft)
20.08.2009 04:14 18,8 C 63 % 1016,5 hPa 0,0 l/m 14,1 km/h (3 Bft) S 175 0 min 0 W/m 11,6 C 16,0 C 14,1 km/h (3 Bft)
20.08.2009 04:19 18,7 C 64 % 1016,5 hPa 0,0 l/m 16,1 km/h (3 Bft) S-SO 165 0 min 0 W/m 11,7 C 15,4 C 16,1 km/h (3 Bft)
20.08.2009 04:23 18,6 C 64 % 1016,5 hPa 0,0 l/m 12,6 km/h (3 Bft) S-SO 165 0 min 0 W/m 11,7 C 16,2 C 12,6 km/h (3 Bft)
20.08.2009 04:29 18,6 C 64 % 1016,5 hPa 0,0 l/m 11,1 km/h (2 Bft) S-SW 195 0 min 0 W/m 11,7 C 16,7 C 11,1 km/h (2 Bft)
20.08.2009 04:34 18,5 C 64 % 1016,5 hPa 0,0 l/m 13,7 km/h (3 Bft) S 175 0 min 0 W/m 11,6 C 15,8 C 13,7 km/h (3 Bft)
20.08.2009 04:39 18,5 C 64 % 1016,5 hPa 0,0 l/m 16,3 km/h (3 Bft) S 175 0 min 0 W/m 11,6 C 15,1 C 16,3 km/h (3 Bft)
20.08.2009 04:44 18,4 C 64 % 1016,5 hPa 0,0 l/m 13,4 km/h (3 Bft) S 175 0 min 0 W/m 11,5 C 15,8 C 13,4 km/h (3 Bft)
20.08.2009 04:49 18,4 C 64 % 1016,5 hPa 0,0 l/m 11,4 km/h (2 Bft) S 170 0 min 0 W/m 11,5 C 16,4 C 11,4 km/h (2 Bft)
20.08.2009 04:54 18,3 C 65 % 1016,5 hPa 0,0 l/m 11,4 km/h (2 Bft) S 180 0 min 0 W/m 11,6 C 16,3 C 11,4 km/h (2 Bft)
20.08.2009 04:59 18,3 C 65 % 1016,5 hPa 0,0 l/m 12,1 km/h (2 Bft) S-SO 160 0 min 0 W/m 11,6 C 16,0 C 12,1 km/h (2 Bft)
20.08.2009 05:04 18,2 C 65 % 1016,5 hPa 0,0 l/m 12,1 km/h (2 Bft) S-SO 160 0 min 0 W/m 11,5 C 15,9 C 12,1 km/h (2 Bft)
20.08.2009 05:09 18,1 C 65 % 1016,5 hPa 0,0 l/m 13,1 km/h (3 Bft) S 180 0 min 0 W/m 11,4 C 15,5 C 13,1 km/h (3 Bft)
20.08.2009 05:14 18,2 C 66 % 1016,5 hPa 0,0 l/m 11,1 km/h (2 Bft) S 170 0 min 0 W/m 11,7 C 16,3 C 11,1 km/h (2 Bft)
20.08.2009 05:19 18,1 C 66 % 1016,5 hPa 0,0 l/m 12,2 km/h (2 Bft) S-SO 165 0 min 0 W/m 11,6 C 15,8 C 12,2 km/h (2 Bft)
20.08.2009 05:24 18,1 C 66 % 1016,5 hPa 0,0 l/m 10,2 km/h (2 Bft) S 180 0 min 0 W/m 11,6 C 16,5 C 10,2 km/h (2 Bft)
20.08.2009 05:29 18,1 C 66 % 1016,5 hPa 0,0 l/m 12,4 km/h (2 Bft) S 170 0 min 0 W/m 11,6 C 15,7 C 12,4 km/h (2 Bft)
20.08.2009 05:34 18,0 C 66 % 1016,5 hPa 0,0 l/m 10,8 km/h (2 Bft) S-SO 165 0 min 0 W/m 11,6 C 16,1 C 10,8 km/h (2 Bft)
20.08.2009 05:39 17,9 C 66 % 1015,5 hPa 0,0 l/m 11,0 km/h (2 Bft) S-SO 160 0 min 0 W/m 11,5 C 16,0 C 11,0 km/h (2 Bft)
20.08.2009 05:44 17,8 C 66 % 1015,5 hPa 0,0 l/m 12,5 km/h (2 Bft) S 180 0 min 0 W/m 11,4 C 15,3 C 12,5 km/h (2 Bft)
20.08.2009 05:49 17,8 C 66 % 1015,5 hPa 0,0 l/m 11,3 km/h (2 Bft) S-SO 160 0 min 0 W/m 11,4 C 15,7 C 11,3 km/h (2 Bft)
20.08.2009 05:54 17,7 C 67 % 1015,5 hPa 0,0 l/m 10,8 km/h (2 Bft) S 180 0 min 0 W/m 11,5 C 15,8 C 10,8 km/h (2 Bft)
20.08.2009 05:59 17,7 C 67 % 1015,5 hPa 0,0 l/m 12,8 km/h (3 Bft) S 170 0 min 0 W/m 11,5 C 15,1 C 12,8 km/h (3 Bft)
20.08.2009 06:04 17,6 C 67 % 1015,5 hPa 0,0 l/m 12,1 km/h (2 Bft) S 175 0 min 0 W/m 11,4 C 15,2 C 12,1 km/h (2 Bft)
20.08.2009 06:09 17,5 C 67 % 1015,5 hPa 0,0 l/m 12,3 km/h (2 Bft) S-SO 165 0 min 0 W/m 11,3 C 15,0 C 12,3 km/h (2 Bft)
20.08.2009 06:13 17,5 C 67 % 1015,5 hPa 0,0 l/m 12,1 km/h (2 Bft) S 170 0 min 0 W/m 11,3 C 15,1 C 12,1 km/h (2 Bft)
20.08.2009 06:19 17,5 C 68 % 1015,5 hPa 0,0 l/m 13,7 km/h (3 Bft) S 170 0 min 0 W/m 11,5 C 14,6 C 13,7 km/h (3 Bft)
20.08.2009 06:24 17,5 C 68 % 1015,5 hPa 0,0 l/m 13,6 km/h (3 Bft) S 175 0 min 0 W/m 11,5 C 14,6 C 13,6 km/h (3 Bft)
20.08.2009 06:29 17,5 C 68 % 1015,5 hPa 0,0 l/m 13,5 km/h (3 Bft) S-SO 160 0 min 0 W/m 11,5 C 14,7 C 13,5 km/h (3 Bft)
20.08.2009 06:34 17,5 C 68 % 1015,5 hPa 0,0 l/m 15,0 km/h (3 Bft) S-SO 165 0 min 0 W/m 11,5 C 14,2 C 15,0 km/h (3 Bft)
20.08.2009 06:39 17,5 C 68 % 1015,5 hPa 0,0 l/m 12,0 km/h (2 Bft) S-SO 165 0 min 0 W/m 11,5 C 15,2 C 12,0 km/h (2 Bft)
20.08.2009 06:44 17,5 C 68 % 1015,5 hPa 0,0 l/m 11,4 km/h (2 Bft) S 170 0 min 0 W/m 11,5 C 15,4 C 11,4 km/h (2 Bft)
20.08.2009 06:49 17,5 C 68 % 1015,5 hPa 0,0 l/m 11,1 km/h (2 Bft) S 170 0 min 0 W/m 11,5 C 15,5 C 11,1 km/h (2 Bft)
20.08.2009 06:54 17,5 C 68 % 1015,5 hPa 0,0 l/m 14,3 km/h (3 Bft) S 170 0 min 0 W/m 11,5 C 14,4 C 14,3 km/h (3 Bft)
20.08.2009 06:58 17,5 C 68 % 1015,5 hPa 0,0 l/m 14,0 km/h (3 Bft) S 170 0 min 0 W/m 11,5 C 14,5 C 14,0 km/h (3 Bft)
20.08.2009 07:04 17,5 C 68 % 1015,5 hPa 0,0 l/m 11,3 km/h (2 Bft) S-SO 165 0 min 0 W/m 11,5 C 15,4 C 11,3 km/h (2 Bft)
20.08.2009 07:09 17,5 C 68 % 1015,5 hPa 0,0 l/m 11,1 km/h (2 Bft) S-SO 160 0 min 0 W/m 11,5 C 15,5 C 11,1 km/h (2 Bft)
20.08.2009 07:14 17,6 C 69 % 1015,5 hPa 0,0 l/m 11,5 km/h (2 Bft) S 170 0 min 0 W/m 11,8 C 15,4 C 11,5 km/h (2 Bft)
20.08.2009 07:19 17,5 C 68 % 1015,5 hPa 0,0 l/m 13,8 km/h (3 Bft) S-SO 165 0 min 0 W/m 11,5 C 14,6 C 13,8 km/h (3 Bft)
20.08.2009 07:24 17,6 C 69 % 1015,5 hPa 0,0 l/m 11,8 km/h (2 Bft) S 170 0 min 0 W/m 11,8 C 15,3 C 11,8 km/h (2 Bft)
20.08.2009 07:29 17,6 C 69 % 1015,5 hPa 0,0 l/m 13,3 km/h (3 Bft) S 170 0 min 0 W/m 11,8 C 14,8 C 13,3 km/h (3 Bft)
20.08.2009 07:34 17,6 C 69 % 1015,5 hPa 0,0 l/m 13,3 km/h (3 Bft) S 170 0 min 0 W/m 11,8 C 14,8 C 13,3 km/h (3 Bft)
20.08.2009 07:39 17,7 C 69 % 1015,5 hPa 0,0 l/m 14,8 km/h (3 Bft) S 170 0 min 0 W/m 11,9 C 14,5 C 14,8 km/h (3 Bft)
20.08.2009 07:44 17,8 C 69 % 1015,5 hPa 0,0 l/m 12,5 km/h (2 Bft) S 175 0 min 0 W/m 12,0 C 15,3 C 12,5 km/h (2 Bft)
20.08.2009 07:49 17,9 C 69 % 1015,5 hPa 0,0 l/m 14,5 km/h (3 Bft) S 185 0 min 0 W/m 12,1 C 14,8 C 14,5 km/h (3 Bft)
20.08.2009 07:54 18,0 C 69 % 1015,5 hPa 0,0 l/m 18,7 km/h (3 Bft) S 180 0 min 0 W/m 12,2 C 13,9 C 18,7 km/h (3 Bft)
20.08.2009 07:59 18,1 C 69 % 1015,5 hPa 0,0 l/m 14,9 km/h (3 Bft) S 170 0 min 0 W/m 12,3 C 15,0 C 14,9 km/h (3 Bft)
20.08.2009 08:04 18,1 C 69 % 1015,5 hPa 0,0 l/m 13,1 km/h (3 Bft) S 175 0 min 0 W/m 12,3 C 15,5 C 13,1 km/h (3 Bft)
20.08.2009 08:09 18,2 C 69 % 1015,5 hPa 0,0 l/m 19,0 km/h (3 Bft) S 175 0 min 0 W/m 12,4 C 14,1 C 19,0 km/h (3 Bft)
20.08.2009 08:14 18,3 C 69 % 1015,5 hPa 0,0 l/m 17,3 km/h (3 Bft) S 185 0 min 0 W/m 12,5 C 14,6 C 17,3 km/h (3 Bft)
20.08.2009 08:19 18,5 C 69 % 1015,5 hPa 0,0 l/m 16,8 km/h (3 Bft) S 180 0 min 0 W/m 12,7 C 15,0 C 16,8 km/h (3 Bft)
20.08.2009 08:24 18,6 C 68 % 1015,5 hPa 0,0 l/m 17,1 km/h (3 Bft) S-SO 165 0 min 0 W/m 12,6 C 15,0 C 17,1 km/h (3 Bft)
20.08.2009 08:29 18,8 C 68 % 1015,5 hPa 0,0 l/m 12,3 km/h (2 Bft) S 170 0 min 0 W/m 12,8 C 16,6 C 12,3 km/h (2 Bft)
20.08.2009 08:33 18,8 C 68 % 1015,5 hPa 0,0 l/m 15,6 km/h (3 Bft) S 190 0 min 0 W/m 12,8 C 15,6 C 15,6 km/h (3 Bft)
20.08.2009 08:39 19,0 C 68 % 1015,5 hPa 0,0 l/m 16,5 km/h (3 Bft) S 180 0 min 0 W/m 13,0 C 15,7 C 16,5 km/h (3 Bft)
20.08.2009 08:44 19,2 C 68 % 1015,5 hPa 0,0 l/m 21,2 km/h (4 Bft) S 180 0 min 0 W/m 13,1 C 14,9 C 21,2 km/h (4 Bft)
20.08.2009 08:49 19,3 C 68 % 1015,5 hPa 0,0 l/m 17,6 km/h (3 Bft) S 170 0 min 0 W/m 13,2 C 15,8 C 17,6 km/h (3 Bft)
20.08.2009 08:54 19,4 C 68 % 1015,5 hPa 0,0 l/m 18,1 km/h (3 Bft) S 190 0 min 0 W/m 13,3 C 15,8 C 18,1 km/h (3 Bft)
20.08.2009 08:59 19,7 C 68 % 1015,5 hPa 0,0 l/m 19,8 km/h (3 Bft) S 180 0 min 0 W/m 13,6 C 15,9 C 19,8 km/h (3 Bft)
20.08.2009 09:04 19,8 C 68 % 1014,5 hPa 0,0 l/m 17,0 km/h (3 Bft) S 170 0 min 0 W/m 13,7 C 16,6 C 17,0 km/h (3 Bft)
20.08.2009 09:09 19,9 C 67 % 1014,5 hPa 0,0 l/m 19,0 km/h (3 Bft) S 190 0 min 0 W/m 13,6 C 16,3 C 19,0 km/h (3 Bft)
20.08.2009 09:14 20,0 C 68 % 1015,5 hPa 0,0 l/m 13,9 km/h (3 Bft) S 170 0 min 0 W/m 13,9 C 17,5 C 13,9 km/h (3 Bft)
20.08.2009 09:19 20,2 C 68 % 1014,5 hPa 0,0 l/m 14,3 km/h (3 Bft) S 175 0 min 0 W/m 14,1 C 17,7 C 14,3 km/h (3 Bft)
20.08.2009 09:24 20,4 C 67 % 1014,5 hPa 0,0 l/m 14,3 km/h (3 Bft) S 175 0 min 0 W/m 14,1 C 17,9 C 14,3 km/h (3 Bft)
20.08.2009 09:29 20,6 C 66 % 1014,5 hPa 0,0 l/m 19,1 km/h (3 Bft) S 180 0 min 0 W/m 14,0 C 17,1 C 19,1 km/h (3 Bft)
20.08.2009 09:34 20,8 C 66 % 1014,5 hPa 0,0 l/m 17,1 km/h (3 Bft) S 170 0 min 0 W/m 14,2 C 17,8 C 17,1 km/h (3 Bft)
20.08.2009 09:38 21,0 C 66 % 1015,5 hPa 0,0 l/m 17,9 km/h (3 Bft) S 180 0 min 0 W/m 14,4 C 17,9 C 17,9 km/h (3 Bft)
20.08.2009 09:44 21,2 C 67 % 1015,5 hPa 0,0 l/m 14,7 km/h (3 Bft) S 185 0 min 0 W/m 14,8 C 18,8 C 14,7 km/h (3 Bft)
20.08.2009 09:49 21,5 C 67 % 1014,5 hPa 0,0 l/m 10,2 km/h (2 Bft) S-SO 165 0 min 0 W/m 15,1 C 20,2 C 10,2 km/h (2 Bft)
20.08.2009 09:54 21,6 C 66 % 1014,5 hPa 0,0 l/m 17,0 km/h (3 Bft) S 190 0 min 0 W/m 15,0 C 18,8 C 17,0 km/h (3 Bft)
20.08.2009 09:59 22,5 C 66 % 1014,5 hPa 0,0 l/m 13,6 km/h (3 Bft) S 185 0 min 0 W/m 15,8 C 20,6 C 13,6 km/h (3 Bft)
20.08.2009 10:04 23,5 C 63 % 1014,5 hPa 0,0 l/m 18,0 km/h (3 Bft) S 175 0 min 0 W/m 16,0 C 21,0 C 18,0 km/h (3 Bft)
20.08.2009 10:09 23,9 C 62 % 1014,5 hPa 0,0 l/m 12,9 km/h (3 Bft) S 170 0 min 0 W/m 16,2 C 22,3 C 12,9 km/h (3 Bft)
20.08.2009 10:14 24,6 C 60 % 1014,5 hPa 0,0 l/m 11,6 km/h (2 Bft) S 175 0 min 0 W/m 16,3 C 23,4 C 11,6 km/h (2 Bft)
20.08.2009 10:19 25,5 C 58 % 1014,5 hPa 0,0 l/m 14,6 km/h (3 Bft) S 175 0 min 0 W/m 16,6 C 24,0 C 14,6 km/h (3 Bft)
20.08.2009 10:24 26,5 C 56 % 1014,5 hPa 0,0 l/m 14,5 km/h (3 Bft) S 175 0 min 0 W/m 17,0 C 25,2 C 14,5 km/h (3 Bft)
20.08.2009 10:29 26,9 C 56 % 1014,5 hPa 0,0 l/m 20,0 km/h (4 Bft) S 170 0 min 0 W/m 17,4 C 25,1 C 20,0 km/h (4 Bft)
20.08.2009 10:34 27,4 C 53 % 1014,5 hPa 0,0 l/m 16,0 km/h (3 Bft) S 175 0 min 0 W/m 17,0 C 26,1 C 16,0 km/h (3 Bft)
20.08.2009 10:39 27,5 C 53 % 1014,5 hPa 0,0 l/m 20,1 km/h (4 Bft) S 175 0 min 0 W/m 17,0 C 25,9 C 20,1 km/h (4 Bft)
20.08.2009 10:43 27,6 C 53 % 1014,5 hPa 0,0 l/m 11,5 km/h (2 Bft) S 180 0 min 0 W/m 17,1 C 26,8 C 11,5 km/h (2 Bft)
20.08.2009 10:49 27,9 C 53 % 1014,5 hPa 0,0 l/m 17,1 km/h (3 Bft) S 175 0 min 0 W/m 17,4 C 26,6 C 17,1 km/h (3 Bft)
20.08.2009 10:54 28,0 C 53 % 1014,5 hPa 0,0 l/m 18,8 km/h (3 Bft) S 180 0 min 0 W/m 17,5 C 26,6 C 18,8 km/h (3 Bft)
20.08.2009 10:59 27,9 C 51 % 1014,5 hPa 0,0 l/m 15,6 km/h (3 Bft) S 180 0 min 0 W/m 16,8 C 26,8 C 15,6 km/h (3 Bft)
20.08.2009 11:04 27,8 C 53 % 1014,5 hPa 0,0 l/m 18,9 km/h (3 Bft) S-SO 160 0 min 0 W/m 17,3 C 26,4 C 18,9 km/h (3 Bft)
20.08.2009 11:08 28,0 C 53 % 1014,5 hPa 0,0 l/m 10,8 km/h (2 Bft) S 185 0 min 0 W/m 17,5 C 27,4 C 10,8 km/h (2 Bft)
20.08.2009 11:14 28,0 C 53 % 1014,5 hPa 0,0 l/m 15,6 km/h (3 Bft) S-SO 160 0 min 0 W/m 17,5 C 26,9 C 15,6 km/h (3 Bft)
20.08.2009 11:19 28,1 C 54 % 1014,5 hPa 0,0 l/m 18,4 km/h (3 Bft) S-SO 165 0 min 0 W/m 17,9 C 26,8 C 18,4 km/h (3 Bft)
20.08.2009 11:24 28,5 C 52 % 1014,5 hPa 0,0 l/m 17,5 km/h (3 Bft) S 185 0 min 0 W/m 17,7 C 27,4 C 17,5 km/h (3 Bft)
20.08.2009 11:29 28,9 C 53 % 1014,5 hPa 0,0 l/m 13,0 km/h (3 Bft) S 170 0 min 0 W/m 18,3 C 28,2 C 13,0 km/h (3 Bft)
20.08.2009 11:34 29,0 C 52 % 1014,5 hPa 0,0 l/m 12,6 km/h (3 Bft) S 170 0 min 0 W/m 18,1 C 28,3 C 12,6 km/h (3 Bft)
20.08.2009 11:39 29,1 C 52 % 1014,5 hPa 0,0 l/m 17,1 km/h (3 Bft) S 170 0 min 0 W/m 18,2 C 28,1 C 17,1 km/h (3 Bft)
20.08.2009 11:44 29,4 C 52 % 1014,5 hPa 0,0 l/m 12,3 km/h (2 Bft) S-SO 160 0 min 0 W/m 18,5 C 28,8 C 12,3 km/h (2 Bft)
20.08.2009 11:48 29,7 C 49 % 1014,5 hPa 0,0 l/m 14,3 km/h (3 Bft) S-SO 165 0 min 0 W/m 17,8 C 29,0 C 14,3 km/h (3 Bft)
20.08.2009 11:54 29,9 C 50 % 1014,5 hPa 0,0 l/m 16,4 km/h (3 Bft) S 170 0 min 0 W/m 18,3 C 29,2 C 16,4 km/h (3 Bft)
20.08.2009 11:59 30,0 C 51 % 1014,5 hPa 0,0 l/m 14,3 km/h (3 Bft) S 190 0 min 0 W/m 18,7 C 29,4 C 14,3 km/h (3 Bft)
20.08.2009 12:04 30,1 C 51 % 1014,5 hPa 0,0 l/m 12,1 km/h (2 Bft) S-SW 195 0 min 0 W/m 18,8 C 29,7 C 12,1 km/h (2 Bft)
20.08.2009 12:09 30,3 C 49 % 1014,5 hPa 0,0 l/m 16,2 km/h (3 Bft) S 180 0 min 0 W/m 18,4 C 29,7 C 16,2 km/h (3 Bft)
20.08.2009 12:13 30,5 C 50 % 1014,5 hPa 0,0 l/m 12,7 km/h (3 Bft) S 185 0 min 0 W/m 18,9 C 30,1 C 12,7 km/h (3 Bft)
20.08.2009 12:19 30,8 C 49 % 1014,5 hPa 0,0 l/m 15,1 km/h (3 Bft) S-SW 195 0 min 0 W/m 18,8 C 30,3 C 15,1 km/h (3 Bft)
20.08.2009 12:24 30,8 C 47 % 1014,5 hPa 0,0 l/m 23,1 km/h (4 Bft) S-SW 195 0 min 0 W/m 18,2 C 30,1 C 23,1 km/h (4 Bft)
20.08.2009 12:29 31,0 C 46 % 1013,5 hPa 0,0 l/m 20,6 km/h (4 Bft) S 190 0 min 0 W/m 18,0 C 30,4 C 20,6 km/h (4 Bft)
20.08.2009 12:34 31,1 C 47 % 1013,5 hPa 0,0 l/m 21,3 km/h (4 Bft) S 185 0 min 0 W/m 18,4 C 30,5 C 21,3 km/h (4 Bft)
20.08.2009 12:39 31,1 C 46 % 1013,5 hPa 0,0 l/m 19,2 km/h (3 Bft) S 180 0 min 0 W/m 18,1 C 30,6 C 19,2 km/h (3 Bft)
20.08.2009 12:44 31,4 C 46 % 1013,5 hPa 0,0 l/m 17,2 km/h (3 Bft) S-SW 210 0 min 0 W/m 18,4 C 31,0 C 17,2 km/h (3 Bft)
20.08.2009 12:49 31,6 C 46 % 1013,5 hPa 0,0 l/m 18,0 km/h (3 Bft) S 190 0 min 0 W/m 18,5 C 31,2 C 18,0 km/h (3 Bft)
20.08.2009 12:54 31,6 C 46 % 1013,5 hPa 0,0 l/m 18,0 km/h (3 Bft) S 190 0 min 0 W/m 18,5 C 31,2 C 18,0 km/h (3 Bft)
20.08.2009 12:59 31,7 C 43 % 1013,5 hPa 0,0 l/m 22,6 km/h (4 Bft) S 185 0 min 0 W/m 17,6 C 31,3 C 22,6 km/h (4 Bft)
20.08.2009 13:04 31,8 C 44 % 1013,5 hPa 0,0 l/m 21,0 km/h (4 Bft) S 185 0 min 0 W/m 18,0 C 31,4 C 21,0 km/h (4 Bft)
20.08.2009 13:09 32,0 C 45 % 1013,5 hPa 0,0 l/m 20,8 km/h (4 Bft) S 190 0 min 0 W/m 18,5 C 31,7 C 20,8 km/h (4 Bft)
20.08.2009 13:14 32,1 C 43 % 1013,5 hPa 0,0 l/m 20,6 km/h (4 Bft) S 175 0 min 0 W/m 17,9 C 31,8 C 20,6 km/h (4 Bft)
20.08.2009 13:19 32,2 C 42 % 1013,5 hPa 0,0 l/m 21,4 km/h (4 Bft) S 175 0 min 0 W/m 17,6 C 32,0 C 21,4 km/h (4 Bft)
20.08.2009 13:24 32,4 C 43 % 1013,5 hPa 0,0 l/m 20,5 km/h (4 Bft) S 190 0 min 0 W/m 18,2 C 32,2 C 20,5 km/h (4 Bft)
20.08.2009 13:29 32,4 C 42 % 1013,5 hPa 0,0 l/m 18,1 km/h (3 Bft) S 185 0 min 0 W/m 17,8 C 32,2 C 18,1 km/h (3 Bft)
20.08.2009 13:34 32,6 C 43 % 1013,5 hPa 0,0 l/m 20,1 km/h (4 Bft) S-SW 200 0 min 0 W/m 18,4 C 32,5 C 20,1 km/h (4 Bft)
20.08.2009 13:39 32,7 C 42 % 1013,5 hPa 0,0 l/m 21,7 km/h (4 Bft) S-SW 200 0 min 0 W/m 18,1 C 32,6 C 21,7 km/h (4 Bft)
20.08.2009 13:44 32,7 C 41 % 1013,5 hPa 0,0 l/m 25,1 km/h (4 Bft) S-SW 195 0 min 0 W/m 17,7 C 32,6 C 25,1 km/h (4 Bft)
20.08.2009 13:49 32,7 C 40 % 1013,5 hPa 0,0 l/m 18,2 km/h (3 Bft) S 185 0 min 0 W/m 17,3 C 32,6 C 18,2 km/h (3 Bft)
20.08.2009 13:53 32,8 C 40 % 1013,5 hPa 0,0 l/m 20,9 km/h (4 Bft) S 180 0 min 0 W/m 17,4 C 32,7 C 20,9 km/h (4 Bft)
20.08.2009 13:59 32,8 C 39 % 1013,5 hPa 0,0 l/m 25,1 km/h (4 Bft) S-SW 195 0 min 0 W/m 17,0 C 32,7 C 25,1 km/h (4 Bft)
20.08.2009 14:04 33,1 C 40 % 1012,5 hPa 0,0 l/m 23,9 km/h (4 Bft) S-SW 195 0 min 0 W/m 17,7 C 33,1 C 23,9 km/h (4 Bft)
20.08.2009 14:09 33,3 C 39 % 1012,5 hPa 0,0 l/m 20,6 km/h (4 Bft) S 180 0 min 0 W/m 17,4 C 33,3 C 20,6 km/h (4 Bft)
20.08.2009 14:14 33,5 C 37 % 1012,5 hPa 0,0 l/m 21,8 km/h (4 Bft) S 190 0 min 0 W/m 16,8 C 33,5 C 21,8 km/h (4 Bft)
20.08.2009 14:19 33,4 C 39 % 1012,5 hPa 0,0 l/m 25,0 km/h (4 Bft) S 185 0 min 0 W/m 17,5 C 33,4 C 25,0 km/h (4 Bft)
20.08.2009 14:24 33,4 C 39 % 1012,5 hPa 0,0 l/m 24,2 km/h (4 Bft) S 170 0 min 0 W/m 17,5 C 33,4 C 24,2 km/h (4 Bft)
20.08.2009 14:29 33,3 C 36 % 1012,5 hPa 0,0 l/m 23,7 km/h (4 Bft) S 190 0 min 0 W/m 16,2 C 33,3 C 23,7 km/h (4 Bft)
20.08.2009 14:34 33,0 C 37 % 1012,5 hPa 0,0 l/m 23,6 km/h (4 Bft) S 190 0 min 0 W/m 16,3 C 33,0 C 23,6 km/h (4 Bft)
20.08.2009 14:39 32,4 C 38 % 1012,5 hPa 0,0 l/m 20,8 km/h (4 Bft) S 170 0 min 0 W/m 16,2 C 32,2 C 20,8 km/h (4 Bft)
20.08.2009 14:44 31,8 C 43 % 1012,5 hPa 0,0 l/m 21,3 km/h (4 Bft) S 180 0 min 0 W/m 17,6 C 31,4 C 21,3 km/h (4 Bft)
20.08.2009 14:49 31,3 C 48 % 1012,5 hPa 0,3 l/m 14,8 km/h (3 Bft) S 185 0 min 0 W/m 18,9 C 30,9 C 14,8 km/h (3 Bft)
20.08.2009 14:53 30,2 C 52 % 1012,5 hPa 0,0 l/m 16,6 km/h (3 Bft) S 175 0 min 0 W/m 19,2 C 29,5 C 16,6 km/h (3 Bft)
20.08.2009 14:59 30,0 C 53 % 1012,5 hPa 0,0 l/m 14,6 km/h (3 Bft) S 175 0 min 0 W/m 19,4 C 29,4 C 14,6 km/h (3 Bft)
20.08.2009 15:04 29,9 C 53 % 1012,5 hPa 0,0 l/m 13,3 km/h (3 Bft) S 175 0 min 0 W/m 19,3 C 29,3 C 13,3 km/h (3 Bft)
20.08.2009 15:09 30,0 C 52 % 1012,5 hPa 0,0 l/m 14,3 km/h (3 Bft) S 185 0 min 0 W/m 19,0 C 29,4 C 14,3 km/h (3 Bft)
20.08.2009 15:14 30,0 C 52 % 1012,5 hPa 0,0 l/m 14,5 km/h (3 Bft) S 175 0 min 0 W/m 19,0 C 29,4 C 14,5 km/h (3 Bft)
20.08.2009 15:19 30,0 C 52 % 1012,5 hPa 0,0 l/m 11,0 km/h (2 Bft) S-SO 165 0 min 0 W/m 19,0 C 29,6 C 11,0 km/h (2 Bft)
20.08.2009 15:24 30,1 C 51 % 1012,5 hPa 0,0 l/m 16,8 km/h (3 Bft) S 175 0 min 0 W/m 18,8 C 29,4 C 16,8 km/h (3 Bft)
20.08.2009 15:29 30,2 C 51 % 1012,5 hPa 0,0 l/m 9,0 km/h (2 Bft) S-SO 160 0 min 0 W/m 18,9 C 30,0 C 9,0 km/h (2 Bft)
20.08.2009 15:34 30,3 C 49 % 1012,5 hPa 0,0 l/m 14,0 km/h (3 Bft) S-SO 165 0 min 0 W/m 18,4 C 29,8 C 14,0 km/h (3 Bft)
20.08.2009 15:39 30,4 C 48 % 1012,5 hPa 0,0 l/m 15,7 km/h (3 Bft) S 170 0 min 0 W/m 18,1 C 29,8 C 15,7 km/h (3 Bft)
20.08.2009 15:44 30,6 C 47 % 1011,5 hPa 0,0 l/m 16,0 km/h (3 Bft) S 180 0 min 0 W/m 18,0 C 30,0 C 16,0 km/h (3 Bft)
20.08.2009 15:48 30,9 C 46 % 1011,5 hPa 0,0 l/m 10,1 km/h (2 Bft) S 175 0 min 0 W/m 17,9 C 30,7 C 10,1 km/h (2 Bft)
20.08.2009 15:54 31,2 C 47 % 1011,5 hPa 0,0 l/m 13,0 km/h (3 Bft) S 170 0 min 0 W/m 18,5 C 30,9 C 13,0 km/h (3 Bft)
20.08.2009 15:59 31,6 C 46 % 1011,5 hPa 0,0 l/m 17,5 km/h (3 Bft) S 180 0 min 0 W/m 18,5 C 31,2 C 17,5 km/h (3 Bft)
20.08.2009 16:04 31,5 C 45 % 1011,5 hPa 0,0 l/m 13,5 km/h (3 Bft) S 175 0 min 0 W/m 18,1 C 31,2 C 13,5 km/h (3 Bft)
20.08.2009 16:09 31,6 C 46 % 1011,5 hPa 0,0 l/m 14,6 km/h (3 Bft) S 175 0 min 0 W/m 18,5 C 31,3 C 14,6 km/h (3 Bft)
20.08.2009 16:14 31,5 C 45 % 1011,5 hPa 0,0 l/m 12,4 km/h (2 Bft) S 175 0 min 0 W/m 18,1 C 31,3 C 12,4 km/h (2 Bft)
20.08.2009 16:19 31,4 C 45 % 1011,5 hPa 0,0 l/m 11,8 km/h (2 Bft) S 180 0 min 0 W/m 18,0 C 31,2 C 11,8 km/h (2 Bft)
20.08.2009 16:24 31,2 C 46 % 1011,5 hPa 0,0 l/m 14,3 km/h (3 Bft) S 175 0 min 0 W/m 18,2 C 30,8 C 14,3 km/h (3 Bft)
20.08.2009 16:29 31,1 C 46 % 1011,5 hPa 0,0 l/m 12,4 km/h (2 Bft) S-SO 160 0 min 0 W/m 18,1 C 30,8 C 12,4 km/h (2 Bft)
20.08.2009 16:34 31,1 C 47 % 1011,5 hPa 0,0 l/m 14,0 km/h (3 Bft) S-SO 160 0 min 0 W/m 18,4 C 30,7 C 14,0 km/h (3 Bft)
20.08.2009 16:39 31,5 C 47 % 1011,5 hPa 0,0 l/m 12,8 km/h (3 Bft) S 175 0 min 0 W/m 18,8 C 31,2 C 12,8 km/h (3 Bft)
20.08.2009 16:44 31,6 C 46 % 1011,5 hPa 0,0 l/m 12,6 km/h (3 Bft) S 175 0 min 0 W/m 18,5 C 31,4 C 12,6 km/h (3 Bft)
20.08.2009 16:48 31,8 C 46 % 1011,5 hPa 0,0 l/m 13,3 km/h (3 Bft) S 170 0 min 0 W/m 18,7 C 31,6 C 13,3 km/h (3 Bft)
20.08.2009 16:54 32,1 C 47 % 1011,5 hPa 0,0 l/m 13,5 km/h (3 Bft) S 170 0 min 0 W/m 19,3 C 31,9 C 13,5 km/h (3 Bft)
20.08.2009 16:59 32,1 C 45 % 1011,5 hPa 0,0 l/m 14,3 km/h (3 Bft) S 170 0 min 0 W/m 18,6 C 31,9 C 14,3 km/h (3 Bft)
20.08.2009 17:04 32,3 C 46 % 1010,5 hPa 0,0 l/m 15,3 km/h (3 Bft) S 175 0 min 0 W/m 19,2 C 32,1 C 15,3 km/h (3 Bft)
20.08.2009 17:09 32,4 C 45 % 1010,5 hPa 0,0 l/m 17,0 km/h (3 Bft) S 170 0 min 0 W/m 18,9 C 32,3 C 17,0 km/h (3 Bft)
20.08.2009 17:13 32,6 C 42 % 1010,5 hPa 0,0 l/m 13,8 km/h (3 Bft) S 175 0 min 0 W/m 18,0 C 32,5 C 13,8 km/h (3 Bft)
20.08.2009 17:19 32,6 C 42 % 1010,5 hPa 0,0 l/m 17,0 km/h (3 Bft) S 170 0 min 0 W/m 18,0 C 32,5 C 17,0 km/h (3 Bft)
20.08.2009 17:24 32,6 C 42 % 1010,5 hPa 0,0 l/m 13,1 km/h (3 Bft) S 180 0 min 0 W/m 18,0 C 32,5 C 13,1 km/h (3 Bft)
20.08.2009 17:29 32,7 C 41 % 1010,5 hPa 0,0 l/m 19,5 km/h (3 Bft) S 170 0 min 0 W/m 17,7 C 32,6 C 19,5 km/h (3 Bft)
20.08.2009 17:34 32,6 C 42 % 1010,5 hPa 0,0 l/m 21,6 km/h (4 Bft) S-SO 165 0 min 0 W/m 18,0 C 32,5 C 21,6 km/h (4 Bft)
20.08.2009 17:39 32,5 C 42 % 1010,5 hPa 0,0 l/m 15,2 km/h (3 Bft) S 180 0 min 0 W/m 17,9 C 32,4 C 15,2 km/h (3 Bft)
20.08.2009 17:44 32,5 C 42 % 1010,5 hPa 0,0 l/m 11,1 km/h (2 Bft) S 180 0 min 0 W/m 17,9 C 32,4 C 11,1 km/h (2 Bft)
20.08.2009 17:49 32,4 C 42 % 1010,5 hPa 0,0 l/m 11,1 km/h (2 Bft) S 180 0 min 0 W/m 17,8 C 32,3 C 11,1 km/h (2 Bft)
20.08.2009 17:53 32,3 C 43 % 1010,5 hPa 0,0 l/m 11,9 km/h (2 Bft) S 175 0 min 0 W/m 18,1 C 32,2 C 11,9 km/h (2 Bft)
20.08.2009 17:59 32,2 C 44 % 1010,5 hPa 0,0 l/m 10,6 km/h (2 Bft) S 170 0 min 0 W/m 18,4 C 32,1 C 10,6 km/h (2 Bft)
20.08.2009 18:04 32,1 C 45 % 1010,5 hPa 0,0 l/m 11,6 km/h (2 Bft) S 185 0 min 0 W/m 18,6 C 32,0 C 11,6 km/h (2 Bft)
20.08.2009 18:09 32,0 C 45 % 1010,5 hPa 0,0 l/m 11,0 km/h (2 Bft) S 190 0 min 0 W/m 18,5 C 31,9 C 11,0 km/h (2 Bft)
20.08.2009 18:14 31,9 C 43 % 1009,5 hPa 0,0 l/m 13,4 km/h (3 Bft) S 175 0 min 0 W/m 17,7 C 31,7 C 13,4 km/h (3 Bft)
20.08.2009 18:18 31,5 C 44 % 1009,5 hPa 0,0 l/m 13,8 km/h (3 Bft) S 180 0 min 0 W/m 17,7 C 31,2 C 13,8 km/h (3 Bft)
20.08.2009 18:24 31,3 C 44 % 1009,5 hPa 0,0 l/m 11,5 km/h (2 Bft) S 170 0 min 0 W/m 17,6 C 31,1 C 11,5 km/h (2 Bft)
20.08.2009 18:29 31,0 C 44 % 1009,5 hPa 0,0 l/m 13,4 km/h (3 Bft) S 190 0 min 0 W/m 17,3 C 30,6 C 13,4 km/h (3 Bft)
20.08.2009 18:34 30,9 C 44 % 1009,5 hPa 0,0 l/m 15,8 km/h (3 Bft) S 175 0 min 0 W/m 17,2 C 30,4 C 15,8 km/h (3 Bft)
20.08.2009 18:39 30,8 C 45 % 1009,5 hPa 0,0 l/m 10,0 km/h (2 Bft) S 185 0 min 0 W/m 17,5 C 30,6 C 10,0 km/h (2 Bft)
20.08.2009 18:44 30,8 C 44 % 1009,5 hPa 0,0 l/m 13,6 km/h (3 Bft) S 175 0 min 0 W/m 17,1 C 30,4 C 13,6 km/h (3 Bft)
20.08.2009 18:49 30,7 C 44 % 1009,5 hPa 0,0 l/m 15,5 km/h (3 Bft) S 180 0 min 0 W/m 17,0 C 30,2 C 15,5 km/h (3 Bft)
20.08.2009 18:54 30,6 C 44 % 1009,5 hPa 0,0 l/m 14,6 km/h (3 Bft) S 180 0 min 0 W/m 16,9 C 30,1 C 14,6 km/h (3 Bft)
20.08.2009 18:59 30,4 C 44 % 1009,5 hPa 0,0 l/m 13,1 km/h (3 Bft) S 180 0 min 0 W/m 16,7 C 29,9 C 13,1 km/h (3 Bft)
20.08.2009 19:04 30,1 C 44 % 1009,5 hPa 0,0 l/m 11,1 km/h (2 Bft) S-SW 195 0 min 0 W/m 16,5 C 29,7 C 11,1 km/h (2 Bft)
20.08.2009 19:09 29,9 C 43 % 1009,5 hPa 0,0 l/m 12,0 km/h (2 Bft) S 185 0 min 0 W/m 15,9 C 29,4 C 12,0 km/h (2 Bft)
20.08.2009 19:14 30,0 C 43 % 1009,5 hPa 0,0 l/m 15,1 km/h (3 Bft) S 185 0 min 0 W/m 16,0 C 29,4 C 15,1 km/h (3 Bft)
20.08.2009 19:19 30,0 C 43 % 1009,5 hPa 0,0 l/m 10,8 km/h (2 Bft) S-SW 200 0 min 0 W/m 16,0 C 29,6 C 10,8 km/h (2 Bft)
20.08.2009 19:24 29,9 C 44 % 1009,5 hPa 0,0 l/m 10,4 km/h (2 Bft) S-SW 195 0 min 0 W/m 16,3 C 29,5 C 10,4 km/h (2 Bft)
20.08.2009 19:29 29,9 C 44 % 1009,5 hPa 0,0 l/m 11,2 km/h (2 Bft) S-SW 195 0 min 0 W/m 16,3 C 29,5 C 11,2 km/h (2 Bft)
20.08.2009 19:34 29,8 C 44 % 1008,5 hPa 0,0 l/m 12,9 km/h (3 Bft) S 190 0 min 0 W/m 16,2 C 29,3 C 12,9 km/h (3 Bft)
20.08.2009 19:39 29,6 C 44 % 1008,5 hPa 0,0 l/m 11,7 km/h (2 Bft) S 190 0 min 0 W/m 16,0 C 29,1 C 11,7 km/h (2 Bft)
20.08.2009 19:44 29,5 C 44 % 1008,5 hPa 0,0 l/m 10,6 km/h (2 Bft) S 190 0 min 0 W/m 15,9 C 29,1 C 10,6 km/h (2 Bft)
20.08.2009 19:48 29,3 C 44 % 1008,5 hPa 0,0 l/m 12,0 km/h (2 Bft) S 185 0 min 0 W/m 15,8 C 28,7 C 12,0 km/h (2 Bft)
20.08.2009 19:54 29,1 C 45 % 1008,5 hPa 0,0 l/m 12,5 km/h (2 Bft) S 175 0 min 0 W/m 15,9 C 28,5 C 12,5 km/h (2 Bft)
20.08.2009 19:59 28,9 C 45 % 1008,5 hPa 0,0 l/m 15,8 km/h (3 Bft) S-SW 195 0 min 0 W/m 15,8 C 28,0 C 15,8 km/h (3 Bft)
20.08.2009 20:04 28,6 C 45 % 1008,5 hPa 0,0 l/m 12,0 km/h (2 Bft) S-SW 195 0 min 0 W/m 15,5 C 27,9 C 12,0 km/h (2 Bft)
20.08.2009 20:09 28,4 C 45 % 1008,5 hPa 0,0 l/m 9,7 km/h (2 Bft) S-SW 195 0 min 0 W/m 15,3 C 28,0 C 9,7 km/h (2 Bft)
20.08.2009 20:14 28,4 C 45 % 1008,5 hPa 0,0 l/m 13,7 km/h (3 Bft) SW 230 0 min 0 W/m 15,3 C 27,5 C 13,7 km/h (3 Bft)
20.08.2009 20:19 28,3 C 49 % 1009,5 hPa 0,0 l/m 27,1 km/h (5 Bft) W-NW 290 0 min 0 W/m 16,5 C 26,5 C 27,1 km/h (5 Bft)
20.08.2009 20:24 27,0 C 49 % 1010,5 hPa 0,0 l/m 33,4 km/h (5 Bft) NW 320 0 min 0 W/m 15,4 C 24,4 C 33,4 km/h (5 Bft)
20.08.2009 20:29 25,9 C 57 % 1010,5 hPa 0,0 l/m 28,8 km/h (5 Bft) NW 310 0 min 0 W/m 16,7 C 23,1 C 28,8 km/h (5 Bft)
20.08.2009 20:34 25,4 C 58 % 1010,5 hPa 0,0 l/m 32,0 km/h (5 Bft) W-NW 295 0 min 0 W/m 16,5 C 22,2 C 32,0 km/h (5 Bft)
20.08.2009 20:39 24,8 C 62 % 1011,5 hPa 0,0 l/m 33,0 km/h (5 Bft) W-NW 300 0 min 0 W/m 17,0 C 21,3 C 33,0 km/h (5 Bft)
20.08.2009 20:43 24,2 C 63 % 1011,5 hPa 0,0 l/m 29,8 km/h (5 Bft) N-NW 330 0 min 0 W/m 16,7 C 20,6 C 29,8 km/h (5 Bft)
20.08.2009 20:49 23,9 C 64 % 1011,5 hPa 0,0 l/m 29,5 km/h (5 Bft) NW 310 0 min 0 W/m 16,7 C 20,2 C 29,5 km/h (5 Bft)
20.08.2009 20:54 23,5 C 65 % 1011,5 hPa 0,0 l/m 30,3 km/h (5 Bft) NW 310 0 min 0 W/m 16,5 C 19,6 C 30,3 km/h (5 Bft)
20.08.2009 20:59 23,2 C 67 % 1012,5 hPa 0,0 l/m 35,7 km/h (5 Bft) NW 310 0 min 0 W/m 16,7 C 18,8 C 35,7 km/h (5 Bft)
20.08.2009 21:04 23,0 C 67 % 1011,5 hPa 0,0 l/m 26,8 km/h (4 Bft) NW 325 0 min 0 W/m 16,5 C 19,3 C 26,8 km/h (4 Bft)
20.08.2009 21:08 22,8 C 67 % 1012,5 hPa 0,0 l/m 28,4 km/h (5 Bft) NW 325 0 min 0 W/m 16,3 C 18,8 C 28,4 km/h (5 Bft)
20.08.2009 21:14 22,8 C 68 % 1012,5 hPa 0,0 l/m 32,6 km/h (5 Bft) NW 315 0 min 0 W/m 16,6 C 18,4 C 32,6 km/h (5 Bft)
20.08.2009 21:19 22,6 C 69 % 1012,5 hPa 0,0 l/m 23,0 km/h (4 Bft) W-NW 300 0 min 0 W/m 16,6 C 19,2 C 23,0 km/h (4 Bft)
20.08.2009 21:24 22,6 C 70 % 1013,5 hPa 0,0 l/m 17,6 km/h (3 Bft) W-NW 295 0 min 0 W/m 16,8 C 19,9 C 17,6 km/h (3 Bft)
20.08.2009 21:29 22,4 C 71 % 1013,5 hPa 0,0 l/m 21,5 km/h (4 Bft) NW 320 0 min 0 W/m 16,9 C 19,1 C 21,5 km/h (4 Bft)
20.08.2009 21:34 22,1 C 71 % 1013,5 hPa 0,0 l/m 20,5 km/h (4 Bft) NW 320 0 min 0 W/m 16,6 C 18,8 C 20,5 km/h (4 Bft)
20.08.2009 21:39 22,0 C 71 % 1013,5 hPa 0,0 l/m 15,5 km/h (3 Bft) NW 310 0 min 0 W/m 16,5 C 19,6 C 15,5 km/h (3 Bft)
20.08.2009 21:44 21,8 C 72 % 1013,5 hPa 0,0 l/m 14,4 km/h (3 Bft) N-NW 340 0 min 0 W/m 16,5 C 19,6 C 14,4 km/h (3 Bft)
20.08.2009 21:49 21,8 C 73 % 1013,5 hPa 0,0 l/m 18,1 km/h (3 Bft) N-NW 335 0 min 0 W/m 16,7 C 18,8 C 18,1 km/h (3 Bft)
20.08.2009 21:54 21,7 C 74 % 1013,5 hPa 0,0 l/m 18,3 km/h (3 Bft) NW 320 0 min 0 W/m 16,9 C 18,7 C 18,3 km/h (3 Bft)
20.08.2009 21:59 21,7 C 74 % 1014,5 hPa 0,0 l/m 18,5 km/h (3 Bft) NW 325 0 min 0 W/m 16,9 C 18,7 C 18,5 km/h (3 Bft)
20.08.2009 22:04 21,7 C 74 % 1014,5 hPa 0,0 l/m 13,5 km/h (3 Bft) N-NW 330 0 min 0 W/m 16,9 C 19,6 C 13,5 km/h (3 Bft)
20.08.2009 22:09 21,5 C 76 % 1014,5 hPa 0,0 l/m 19,5 km/h (3 Bft) N-NW 345 0 min 0 W/m 17,1 C 18,2 C 19,5 km/h (3 Bft)
20.08.2009 22:14 21,4 C 76 % 1014,5 hPa 0,0 l/m 24,0 km/h (4 Bft) N-NW 335 0 min 0 W/m 17,0 C 17,4 C 24,0 km/h (4 Bft)
20.08.2009 22:19 21,2 C 76 % 1014,5 hPa 0,0 l/m 18,1 km/h (3 Bft) N-NW 340 0 min 0 W/m 16,8 C 18,1 C 18,1 km/h (3 Bft)
20.08.2009 22:24 21,0 C 78 % 1014,5 hPa 0,0 l/m 21,9 km/h (4 Bft) NW 315 0 min 0 W/m 17,0 C 17,2 C 21,9 km/h (4 Bft)
20.08.2009 22:29 21,0 C 77 % 1014,5 hPa 0,0 l/m 19,1 km/h (3 Bft) NW 320 0 min 0 W/m 16,8 C 17,7 C 19,1 km/h (3 Bft)
20.08.2009 22:34 20,8 C 78 % 1014,5 hPa 0,3 l/m 9,6 km/h (2 Bft) N 350 0 min 0 W/m 16,8 C 19,6 C 9,6 km/h (2 Bft)
20.08.2009 22:39 20,6 C 79 % 1014,5 hPa 0,3 l/m 15,3 km/h (3 Bft) N 355 0 min 0 W/m 16,8 C 17,9 C 15,3 km/h (3 Bft)
20.08.2009 22:44 20,4 C 80 % 1014,5 hPa 0,0 l/m 17,5 km/h (3 Bft) N 5 0 min 0 W/m 16,8 C 17,2 C 17,5 km/h (3 Bft)
20.08.2009 22:49 20,2 C 80 % 1014,5 hPa 0,0 l/m 13,1 km/h (3 Bft) N 360 0 min 0 W/m 16,6 C 18,0 C 13,1 km/h (3 Bft)
20.08.2009 22:54 20,2 C 80 % 1013,5 hPa 0,3 l/m 11,0 km/h (2 Bft) N 360 0 min 0 W/m 16,6 C 18,6 C 11,0 km/h (2 Bft)
20.08.2009 22:59 20,2 C 81 % 1013,5 hPa 0,0 l/m 13,8 km/h (3 Bft) N 10 0 min 0 W/m 16,8 C 17,8 C 13,8 km/h (3 Bft)
20.08.2009 23:04 20,2 C 81 % 1013,5 hPa 0,0 l/m 7,9 km/h (2 Bft) N 5 0 min 0 W/m 16,8 C 19,6 C 7,9 km/h (2 Bft)
20.08.2009 23:09 20,3 C 81 % 1013,5 hPa 0,3 l/m 5,5 km/h (2 Bft) N-NW 340 0 min 0 W/m 16,9 C 20,3 C 5,5 km/h (2 Bft)
20.08.2009 23:14 20,4 C 82 % 1014,5 hPa 0,0 l/m 5,1 km/h (1 Bft) NW 315 0 min 0 W/m 17,2 C 20,4 C 5,1 km/h (1 Bft)
20.08.2009 23:19 20,5 C 83 % 1014,5 hPa 0,6 l/m 11,8 km/h (2 Bft) W-NW 285 0 min 0 W/m 17,5 C 18,7 C 11,8 km/h (2 Bft)
20.08.2009 23:24 20,4 C 83 % 1015,5 hPa 0,0 l/m 6,4 km/h (2 Bft) W-SW 250 0 min 0 W/m 17,4 C 20,4 C 6,4 km/h (2 Bft)
20.08.2009 23:29 20,3 C 84 % 1015,5 hPa 0,6 l/m 16,0 km/h (3 Bft) W 260 0 min 0 W/m 17,5 C 17,4 C 16,0 km/h (3 Bft)
20.08.2009 23:34 20,2 C 84 % 1015,5 hPa 1,2 l/m 16,6 km/h (3 Bft) W-NW 285 0 min 0 W/m 17,4 C 17,1 C 16,6 km/h (3 Bft)
20.08.2009 23:39 20,0 C 84 % 1015,5 hPa 0,6 l/m 13,0 km/h (3 Bft) W 270 0 min 0 W/m 17,2 C 17,8 C 13,0 km/h (3 Bft)
20.08.2009 23:44 19,9 C 85 % 1015,5 hPa 0,6 l/m 11,2 km/h (2 Bft) W 280 0 min 0 W/m 17,3 C 18,2 C 11,2 km/h (2 Bft)
20.08.2009 23:49 19,8 C 85 % 1015,5 hPa 0,0 l/m 12,7 km/h (3 Bft) W 265 0 min 0 W/m 17,2 C 17,6 C 12,7 km/h (3 Bft)
20.08.2009 23:54 19,7 C 84 % 1014,5 hPa 0,0 l/m 7,6 km/h (2 Bft) NW 310 0 min 0 W/m 16,9 C 19,2 C 7,6 km/h (2 Bft)
20.08.2009 23:59 19,6 C 85 % 1014,5 hPa 0,0 l/m 9,2 km/h (2 Bft) NW 305 0 min 0 W/m 17,0 C 18,5 C 9,2 km/h (2 Bft)
_ Min-Zeit 06:09 14:29 19:34 - 23:14 - - - - 06:09 07:54 23:14
Minimum _ 17,5 C 36 % 1008,5 hPa - 5,1 km/h (1 Bft) - - - - 11,3 C 13,9 C 5,1 km/h (1 Bft)
_ Max-Zeit 14:14 23:44 00:04 23:34 20:59 - - 00:04 00:04 14:59 14:14 20:59
Maximum _ 33,5 C 85 % 1017,5 hPa 1,2 l/m 35,7 km/h
NW (5 Bft)
- - 0 min 0 W/m 19,4 C 33,5 C 35,7 km/h
NW (5 Bft)
Durchschnitt _ 24,3 C 59 % 1014,0 hPa #5,1 l/m 15,2 km/h (3 Bft) S - #0 min. 0 W/m 15,3 C 22,7 C 15,2 km/h (3 Bft)
copyright by Holger Just